Station DTLM4 - 9075099 - De Tour Village, MI Image indicating link to RSS feed of recent meteorological observations for station DTLM4


Conditions at DTLM4 as of
(10:54 am EDT)
1454 GMT on 04/15/2024:
     

Click on the graph icon in the table below to see a time series plot of the last five days of that observation.

5-day plot - Wind Direction Wind Direction (WDIR):SSE ( 150 deg true )
5-day plot - Wind Speed Wind Speed (WSPD): 6.0 kts
5-day plot - Wind Gust Wind Gust (GST): 8.0 kts
5-day plot - Atmospheric Pressure Atmospheric Pressure (PRES):29.90 in
5-day plot - Air Temperature Air Temperature (ATMP): 43.7 °F
5-day plot - Water Temperature Water Temperature (WTMP): 39.0 °F
5-day plot - Dew Point Dew Point (DEWP): 40.8 °F
5-day plot - Wind Chill Wind Chill (CHILL): 39.6 °F
5-day plot - Wind Speed at 10 Meters Wind Speed at 10 meters (WSPD10M): 5.8 kts
5-day plot - Wind Speed at 20 Meters Wind Speed at 20 meters (WSPD20M): 5.8 kts
5-day plot -  Wind Speed, Wind Gust and Atmospheric Pressure Combined plot of Wind Speed, Gust, and Air Pressure
NOS Water Level Observation Network Water Level
Previous observations
TIME
(EDT)
5-day plot - Wind Direction
WDIR
 
5-day plot - Wind Speed
WSPD
kts
5-day plot - Wind Gust
GST
kts
5-day plot - Wave Height
WVHT
ft
5-day plot - Dominant Wave Period
DPD
sec
5-day plot - Average Wave Period
APD
sec
5-day plot - Mean Wave Direction
MWD
 
5-day plot - Atmospheric Pressure
PRES
in
5-day plot - Pressure Tendency
PTDY
in
5-day plot - Air Temperature
ATMP
°F
5-day plot - Water Temperature
WTMP
°F
5-day plot - Dew Point
DEWP
°F
5-day plot - Salinity
SAL
psu
5-day plot - Visibility
VIS
nmi
5-day plot - Tide (above MLLW)
TIDE
ft
2024-04-15 10:48 amSSE 8.0 9.9----29.90- 42.8 39.0 39.7---
2024-04-15 10:42 amSSE 8.9 9.9----29.89- 43.2 39.0 38.8---
2024-04-15 10:36 am E 4.1 9.9----29.90- 45.3 39.0 38.8---
2024-04-15 10:30 am N 8.9 11.1----29.89-- 39.0----
2024-04-15 10:24 am N 8.9 12.0----29.89-- 39.0----
2024-04-15 10:18 am N 9.9 12.0----29.89- 44.6 39.0 37.9---
2024-04-15 10:12 am N 9.9 12.0----29.89- 44.6 39.0 37.8---
2024-04-15 10:06 am N 12.0 12.0----29.89- 44.6 39.0 38.1---
2024-04-15 10:00 am N 9.9 12.0----29.89+0.04 44.2 39.0 37.9---
2024-04-15 09:54 am NW 4.1 9.9----29.89- 46.9 39.0 37.8---
2024-04-15 09:48 am NW 6.0 8.9----29.89- 47.7 39.0 38.1---
2024-04-15 09:42 am NW 7.0 11.1----29.89- 47.1 39.0 37.9---
2024-04-15 09:36 amWNW 8.0 12.0----29.89- 46.6 39.2 37.4---
2024-04-15 09:30 am W 7.0 12.0----29.89- 46.6 39.0 37.8---
2024-04-15 09:24 am NW 6.0 12.0----29.89- 46.2 39.2 37.6---
2024-04-15 09:18 amWNW 7.0 13.0----29.89- 45.9 39.0 37.6---
2024-04-15 09:12 am W 6.0 11.1----29.90- 45.7 39.0 37.6---
2024-04-15 09:06 amWNW 7.0 9.9----29.90- 45.1 39.0 37.4---
2024-04-15 09:00 amWNW 7.0 12.0----29.90+0.06 44.8 39.0 37.2---
2024-04-15 08:54 am W 6.0 8.9----29.89- 44.4 39.0 37.4---
2024-04-15 08:48 amWNW 7.0 9.9----29.89- 43.7 39.0 37.2---
2024-04-15 08:42 am W 7.0 9.9----29.89- 43.2 39.0 37.0---
2024-04-15 08:36 am W 7.0 11.1----29.89- 42.8 39.0 37.0---
2024-04-15 08:30 am W 6.0 13.0----29.89- 42.1 39.0 36.9---
2024-04-15 08:24 am W 6.0 11.1----29.89- 41.5 39.0 36.7---
2024-04-15 08:18 amWNW 6.0 12.0----29.89- 41.0 39.0 36.5---
2024-04-15 08:12 am W 8.0 12.0----29.88- 40.6 39.0 36.5---
2024-04-15 08:06 am W 8.0 12.0----29.88- 40.3 39.0 36.3---
2024-04-15 08:00 am W 7.0 11.1----29.88+0.06 39.9 39.0 36.1---
2024-04-15 07:54 am W 7.0 12.0----29.88- 39.4 39.0 35.8---
2024-04-15 07:48 am W 8.0 12.0----29.87- 39.0 39.0 35.4---
2024-04-15 07:42 am W 8.0 13.0----29.87- 39.0 39.2 35.4---
2024-04-15 07:36 am W 7.0 12.0----29.87- 38.8 39.0 35.4---
2024-04-15 07:30 am W 7.0 11.1----29.87- 38.5 39.0 35.1---
2024-04-15 07:24 am W 8.0 12.0----29.86- 38.3 39.0 35.1---
2024-04-15 07:18 am W 8.0 9.9----29.86- 38.1 39.0 34.9---
2024-04-15 07:12 am W 7.0 11.1----29.85- 37.9 39.0 34.9---
2024-04-15 07:06 am W 8.0 11.1----29.85- 37.6 39.0 34.7---
2024-04-15 07:00 am W 8.9 11.1----29.85+0.04 37.4 39.0 34.5---
2024-04-15 06:54 am W 8.9 11.1----29.85- 37.6 39.0 34.5---
2024-04-15 06:48 am W 7.0 9.9----29.85- 37.8 39.0 34.7---
2024-04-15 06:42 am W 6.0 8.9----29.84- 37.6 39.0 34.7---
2024-04-15 06:36 am W 8.0 9.9----29.84- 37.0 39.0 34.2---
2024-04-15 06:30 am W 7.0 8.9----29.84- 37.4 39.0 34.5---
2024-04-15 06:24 am W 7.0 9.9----29.84- 37.4 39.0 34.5---
2024-04-15 06:18 am W 8.0 11.1----29.84- 37.2 39.0 34.3---
2024-04-15 06:12 am W 7.0 11.1----29.83- 37.0 39.0 34.2---
2024-04-15 06:06 am W 8.0 9.9----29.83- 37.0 39.0 34.0---
2024-04-15 06:00 am W 8.0 11.1----29.83+0.03 37.2 39.0 34.2---
2024-04-15 05:54 am W 8.0 11.1----29.83- 37.0 39.0 34.2---
2024-04-15 05:48 am W 8.0 11.1----29.83- 37.0 39.0 34.3---
2024-04-15 05:42 am W 8.0 9.9----29.83- 36.9 39.0 34.2---
2024-04-15 05:36 am W 7.0 8.9----29.83- 36.9 39.0 34.3---
2024-04-15 05:30 am W 7.0 11.1----29.82- 36.7 39.0 34.3---
2024-04-15 05:24 am W 7.0 9.9----29.82- 36.7 39.0 34.3---
2024-04-15 05:18 am W 7.0 9.9----29.82- 36.5 39.0 34.2---
2024-04-15 05:12 am W 7.0 8.9----29.82- 36.3 39.0 34.0---
2024-04-15 05:06 am W 7.0 11.1----29.82- 36.7 39.0 34.2---
2024-04-15 05:00 am W 7.0 8.9----29.82+0.02 36.9 39.0 34.2---
2024-04-15 04:54 am W 6.0 8.9----29.81- 36.9 39.0 34.2---
2024-04-15 04:48 am W 7.0 9.9----29.81- 37.2 39.0 34.5---
2024-04-15 04:42 am W 7.0 8.9----29.81- 37.0 39.0 34.3---
2024-04-15 04:36 am W 7.0 8.9----29.81- 36.9 39.2 34.3---
2024-04-15 04:30 am W 7.0 8.9----29.81- 36.9 39.2 34.3---
2024-04-15 04:24 am W 6.0 8.9----29.81- 36.9 39.2 34.3---
2024-04-15 04:18 am W 6.0 8.9----29.81- 37.0 39.2 34.5---
2024-04-15 04:12 am W 6.0 8.9----29.81- 37.0 39.0 34.7---
2024-04-15 04:06 amWNW 6.0 9.9----29.81- 36.9 39.0 34.5---
2024-04-15 04:00 am W 7.0 11.1----29.81+0.02 37.2 39.0 34.7---
2024-04-15 03:54 am W 8.9 11.1----29.81- 37.4 39.0 34.9---
2024-04-15 03:48 am W 7.0 11.1----29.80- 37.0 39.0 34.7---
2024-04-15 03:42 am W 8.9 11.1----29.80- 37.2 39.0 34.9---
2024-04-15 03:36 am W 7.0 11.1----29.80- 37.2 39.0 35.1---
2024-04-15 03:30 am W 6.0 11.1----29.80- 37.0 39.0 35.1---
2024-04-15 03:24 am W 5.1 8.9----29.80- 36.5 39.0 34.7---
2024-04-15 03:18 am W 4.1 6.0----29.80- 36.3 39.0 34.7---
2024-04-15 03:12 amWNW 1.9 4.1----29.80- 36.1 39.0 34.7---
2024-04-15 03:06 amWSW 1.9 1.9----29.80- 36.3 39.2 35.1---
2024-04-15 03:00 am- 0.0 1.9----29.80+0.00 36.3 39.2 35.1---
2024-04-15 02:54 am S 1.9 4.1----29.80- 36.3 39.2 35.1---
2024-04-15 02:48 am S 2.9 5.1----29.80- 36.3 39.2 34.7---
2024-04-15 02:42 amWSW 1.9 5.1----29.80- 36.3 39.2 34.5---
2024-04-15 02:36 amWSW 1.0 1.9----29.80- 36.3 39.2 34.7---
2024-04-15 02:30 am- 0.0 1.9----29.80- 36.3 39.2 34.9---
2024-04-15 02:24 amWSW 1.0 4.1----29.80- 36.3 39.2 34.7---
2024-04-15 02:18 am W 1.9 2.9----29.80- 36.0 39.2 34.3---
2024-04-15 02:12 am W 1.0 4.1----29.80- 36.1 39.2 34.7---
2024-04-15 02:06 am W 1.9 4.1----29.80- 36.3 39.2 34.7---
2024-04-15 02:00 am W 2.9 5.1----29.80+0.01 36.3 39.2 34.7---
2024-04-15 01:54 amWNW 4.1 7.0----29.80- 36.5 39.2 34.9---
2024-04-15 01:48 amWNW 6.0 8.9----29.80- 36.5 39.2 34.7---
2024-04-15 01:42 am W 6.0 9.9----29.80- 36.5 39.2 34.7---
2024-04-15 01:36 am W 6.0 9.9----29.80- 36.5 39.2 34.9---
2024-04-15 01:30 am W 8.0 8.9----29.80- 36.5 39.2 34.7---
2024-04-15 01:24 am W 7.0 8.9----29.80- 36.7 39.2 34.9---
2024-04-15 01:18 am W 6.0 8.9----29.80- 36.7 39.2 34.7---
2024-04-15 01:12 am W 6.0 8.0----29.80- 36.9 39.2 34.9---
2024-04-15 01:06 am W 5.1 7.0----29.79- 36.0 39.2 34.0---
2024-04-15 01:00 am W 5.1 6.0----29.79+0.02 36.1 39.2 34.0---
2024-04-15 12:54 am W 2.9 5.1----29.79- 36.9 39.2 34.5---
2024-04-15 12:48 am W 1.9 5.1----29.79- 37.4 39.2 35.1---
2024-04-15 12:42 am W 4.1 6.0----29.79- 37.6 39.2 35.1---
2024-04-15 12:36 am W 2.9 4.1----29.79- 37.8 39.2 35.1---
2024-04-15 12:30 amWNW 2.9 4.1----29.79- 37.8 39.2 35.1---
2024-04-15 12:24 amWNW 2.9 7.0----29.79- 38.1 39.0 35.2---
2024-04-15 12:18 amWNW 4.1 7.0----29.79- 38.3 39.0 35.2---
2024-04-15 12:12 amWNW 5.1 11.1----29.79- 38.7 39.0 35.2---
2024-04-15 12:06 amWNW 5.1 8.9----29.80- 38.7 39.0 34.9---
2024-04-15 12:00 amWNW 5.1 9.9----29.80+0.05 38.8 39.0 34.7---
2024-04-14 11:54 pmWNW 5.1 8.9----29.80- 39.0 39.0 34.3---
2024-04-14 11:48 pm NW 6.0 8.9----29.80- 39.2 39.0 33.4---
2024-04-14 11:42 pm NW 5.1 7.0----29.80- 39.2 39.0 34.7---
2024-04-14 11:36 pmWNW 4.1 6.0----29.80- 39.4 39.0 34.7---
2024-04-14 11:30 pmWNW 4.1 8.0----29.79- 39.6 39.0 34.9---
2024-04-14 11:24 pmWNW 6.0 9.9----29.79- 39.9 39.0 34.9---
2024-04-14 11:18 pmWNW 7.0 12.0----29.79- 40.1 39.0 35.1---
2024-04-14 11:12 pm NW 7.0 12.0----29.79- 40.3 39.0 35.2---
2024-04-14 11:06 pm NW 8.0 19.0----29.79- 40.5 39.0 35.1---
2024-04-14 11:00 pm NW 11.1 15.9----29.79+0.06 40.6 39.0 35.1---
2024-04-14 10:54 pm NW 8.0 15.9----29.79- 40.6 39.0 35.1---
2024-04-14 10:48 pm NW 8.9 14.0----29.78- 40.8 39.0 35.6---
2024-04-14 10:42 pmNNW 11.1 17.1----29.78- 41.2 39.0 35.8---
2024-04-14 10:36 pm NW 9.9 17.1----29.78- 41.2 39.0 35.6---
2024-04-14 10:30 pmNNW 8.9 15.9----29.78- 41.4 39.0 36.0---
2024-04-14 10:24 pmNNW 8.9 17.1----29.78- 41.5 39.0 36.1---
2024-04-14 10:18 pmNNW 12.0 19.0----29.78- 41.9 39.0 37.0---
2024-04-14 10:12 pmNNW 12.0 19.0----29.77- 42.1 39.0 37.9---
2024-04-14 10:06 pmNNW 8.0 14.0----29.77- 42.3 39.0 38.7---
2024-04-14 10:00 pm NW 9.9 15.0----29.77+0.05 42.4 39.0 38.7---
2024-04-14 09:54 pmNNW 8.9 17.1----29.77- 42.6 39.0 38.8---
2024-04-14 09:48 pmNNW 9.9 17.1----29.77- 42.8 39.0 39.0---
2024-04-14 09:42 pmNNW 9.9 15.9----29.76- 42.8 39.0 39.0---
2024-04-14 09:36 pmNNW 8.9 14.0----29.76- 43.0 39.0 39.2---
2024-04-14 09:30 pmNNW 9.9 15.9----29.76- 43.2 39.0 39.0---
2024-04-14 09:24 pmNNW 8.9 15.9----29.76- 43.3 39.0 39.0---
2024-04-14 09:18 pmNNW 8.9 15.0----29.75- 43.5 39.0 39.0---
2024-04-14 09:12 pmNNW 9.9 18.1----29.75- 43.7 39.0 39.0---
2024-04-14 09:06 pmNNW 8.9 18.1----29.75- 43.7 39.0 39.0---
2024-04-14 09:00 pmNNW 8.9 18.1----29.75+0.04 43.9 39.0 39.2---
2024-04-14 08:54 pm NW 9.9 19.0----29.74- 44.1 39.0 39.0---
2024-04-14 08:48 pm NW 8.0 15.0----29.74-- 39.0----
2024-04-14 08:42 pmNNW 8.0 15.0----29.74-- 39.0----
2024-04-14 08:36 pmNNW 7.0 12.0----29.74-- 39.0----
2024-04-14 08:30 pm-------29.74- 44.8 39.0 39.4---
2024-04-14 08:24 pm-------29.74- 45.1 39.0 39.4---
2024-04-14 08:18 pm NW 7.0 11.1------ 45.3 39.0 39.2---
2024-04-14 08:12 pmNNW 6.0 9.9------ 45.7 39.0 39.2---
2024-04-14 08:06 pm NW 6.0 14.0------ 46.0 39.0 39.2---
2024-04-14 08:00 pm NW 6.0 11.1----29.73+0.06 46.2 39.0 39.2---
2024-04-14 07:54 pm NW 8.9 14.0----29.73- 46.6 39.0 39.2---
2024-04-14 07:48 pm NW 8.9 14.0----29.73- 46.8 39.0 39.2---
2024-04-14 07:30 pm NW 7.0 14.0----29.73- 47.7 39.0 39.7---
2024-04-14 07:24 pmNNW 8.0 14.0----29.73- 47.7 39.0 39.7---
2024-04-14 07:18 pmNNW 8.9 13.0----29.72- 47.7 39.0 39.6---
2024-04-14 07:12 pmNNW 8.0 14.0----29.72- 48.0 39.0 39.7---
2024-04-14 07:06 pm NW 7.0 14.0----29.72- 48.4 39.0 39.7---
2024-04-14 07:00 pm NW 8.9 15.9----29.72+0.07- 39.0----
2024-04-14 06:54 pmNNW 11.1 15.0----29.72-- 39.0----
2024-04-14 06:48 pmNNW 9.9 15.0----29.72- 48.7 39.0 40.1---
2024-04-14 06:42 pmNNW 8.0 13.0----29.72- 49.3 39.0 40.5---
2024-04-14 06:36 pmNNW 8.0 18.1----29.72- 49.1 39.0 40.1---
2024-04-14 06:30 pmNNW 8.0 15.0----29.72- 49.3 39.0 40.3---
2024-04-14 06:24 pmNNW 9.9 15.9----29.72- 49.5 39.0 40.1---
2024-04-14 06:18 pmNNW 7.0 18.1----29.71- 49.8 39.0 40.5---
2024-04-14 06:12 pm NW 8.9 15.0----29.71- 50.0 39.0 40.3---
2024-04-14 06:06 pm NW 8.9 15.0----29.71- 50.4 39.0 40.5---
2024-04-14 06:00 pm NW 12.0 17.1----29.71+0.07 50.4 39.0 40.5---
2024-04-14 05:54 pmNNW 11.1 17.1----29.70- 50.2 39.0 40.6---
2024-04-14 05:48 pm NW 12.0 20.0----29.70-- 39.0----
2024-04-14 05:42 pm NW 8.9 18.1----29.70-- 39.0----
2024-04-14 05:36 pmNNW 9.9 19.0----29.69-- 39.0----
2024-04-14 05:30 pm NW 12.0 20.0----29.69-- 39.0----
2024-04-14 05:24 pm NW 11.1 20.0----29.69-- 39.0----
2024-04-14 05:18 pm NW 12.0 19.0----29.68- 50.7 39.0 41.4---
2024-04-14 05:12 pm NW 11.1 21.0----29.68- 50.9 39.0 41.2---
2024-04-14 05:06 pmNNW 8.0 18.1----29.68- 51.4 39.0 41.7---
2024-04-14 05:00 pm NW 8.0 20.0----29.67+0.04 51.4 39.0 41.9---
2024-04-14 04:54 pmNNW 14.0 19.0----29.67- 51.1 39.0 41.9---
2024-04-14 04:48 pmNNW 9.9 18.1----29.67- 50.9 39.0 42.3---
2024-04-14 04:42 pmNNW 15.0 22.0----29.67- 50.5 39.0 41.9---
2024-04-14 04:36 pmNNW 12.0 18.1----29.66- 50.9 39.0 42.1---
2024-04-14 04:30 pmNNW 14.0 20.0----29.66- 50.9 39.0 41.7---
2024-04-14 04:24 pmNNW 13.0 17.1----29.65- 51.4 39.0 41.9---
2024-04-14 04:18 pmNNW 12.0 20.0----29.65- 52.0 39.0 42.1---
2024-04-14 04:12 pmNNW 12.0 19.0----29.65- 52.5 39.0 42.3---
2024-04-14 04:06 pmNNW 11.1 17.1----29.65- 52.7 39.0 42.6---
2024-04-14 04:00 pmNNW 8.9 15.0----29.65+0.04 52.5 39.0 43.2---
2024-04-14 03:54 pmNNW 8.9 17.1----29.65- 52.9 39.0 43.7---
2024-04-14 03:48 pmNNW 12.0 15.9----29.65- 52.9 39.0 43.3---
2024-04-14 03:42 pm NW 6.0 15.0----29.65- 53.4 39.0 43.9---
2024-04-14 03:36 pmNNW 12.0 19.0----29.65- 52.5 39.0 43.9---
2024-04-14 03:30 pmNNW 9.9 14.0----29.65- 51.6 39.0 43.9---
2024-04-14 03:24 pmNNW 7.0 15.9----29.65- 52.2 39.0 44.8---
2024-04-14 03:18 pm N 12.0 15.9----29.64- 51.1 39.0 44.1---
2024-04-14 03:12 pm N 12.0 15.0----29.64- 51.4 39.0 44.4---
2024-04-14 03:06 pmNNW 8.0 13.0----29.64- 51.1 39.0 44.8---
2024-04-14 03:00 pmNNW 8.9 13.0----29.64+0.04------
2024-04-14 02:54 pm N 8.9 15.0----29.64-------
2024-04-14 02:48 pm N 11.1 14.0----29.63- 47.5 39.0 44.8---
2024-04-14 02:42 pm N 9.9 17.1----29.63- 46.6 39.0 44.2---
2024-04-14 02:36 pm N 11.1 14.0----29.63- 47.5 39.0 46.2---
2024-04-14 02:30 pmNNE 4.1 6.0----29.63- 42.8 39.0 42.8---
2024-04-14 02:24 pm NE 2.9 5.1----29.63- 42.1 39.0 42.1---
2024-04-14 02:18 pm NE 1.9 2.9----29.64- 41.7 39.0 41.7---
2024-04-14 02:12 pm NE 1.9 2.9----29.63- 41.5 39.0 41.5---
2024-04-14 02:06 pm NE 2.9 5.1----29.63- 41.2 39.0 41.2---
2024-04-14 02:00 pmNNE 4.1 5.1----29.63+0.04 41.2 39.0 41.2---
2024-04-14 01:54 pmNNE 4.1 4.1----29.63- 41.2 39.0 41.2---
2024-04-14 01:48 pm NE 4.1 5.1----29.63- 41.0 39.0 41.0---
2024-04-14 01:42 pm NE 4.1 5.1----29.63- 41.0 39.0 41.0---
2024-04-14 01:36 pmNNE 4.1 5.1----29.63- 41.0 39.0 41.0---
2024-04-14 01:30 pmNNE 2.9 5.1----29.62- 40.8 39.0 40.8---
2024-04-14 01:24 pmNNE 4.1 5.1----29.62- 40.8 39.0 40.8---
2024-04-14 01:18 pm NE 4.1 5.1----29.62- 40.8 39.0 40.8---
2024-04-14 01:12 pmNNE 5.1 7.0----29.62- 41.2 39.0 41.2---
2024-04-14 01:06 pm N 6.0 7.0----29.62- 41.2 39.0 41.2---
2024-04-14 01:00 pmNNE 5.1 6.0----29.62+0.02 41.2 39.0 41.2---
2024-04-14 12:54 pmNNE 5.1 6.0----29.62- 41.2 39.0 41.2---
2024-04-14 12:48 pmNNE 6.0 8.0----29.61-- 38.8----
2024-04-14 12:42 pm N 8.0 9.9----29.61-- 39.0----
2024-04-14 12:36 pmNNE 8.0 8.9----29.61-- 39.0----
2024-04-14 12:30 pm N 8.9 8.9----29.60-- 39.0----
2024-04-14 12:24 pm N 7.0 8.9----29.60-- 39.0----
2024-04-14 12:18 pm N 8.0 8.9----29.60- 41.0 39.0 41.0---
2024-04-14 12:12 pm N 8.0 8.0----29.60- 41.0 39.0 41.0---
2024-04-14 12:06 pmNNE 6.0 7.0----29.60- 41.2 39.0 41.2---
2024-04-14 12:00 pm N 5.1 6.0----29.60+0.01 41.0 39.0 41.0---
2024-04-14 11:54 am N 6.0 7.0----29.60- 40.8 39.0 40.8---
2024-04-14 11:48 amNNE 4.1 6.0----29.59- 41.0 39.0 41.0---
2024-04-14 11:42 am N 5.1 6.0----29.59- 41.0 39.0 41.0---
2024-04-14 11:36 amNNE 6.0 6.0----29.59- 40.8 39.0 40.8---
2024-04-14 11:30 amNNE 6.0 6.0----29.59-- 39.0----
2024-04-14 11:24 amNNE 5.1 6.0----29.59-- 39.0----
2024-04-14 11:18 amNNE 5.1 6.0----29.59-- 39.0----
2024-04-14 11:12 amNNE 5.1 6.0----29.59-- 39.0----
2024-04-14 11:06 amNNE 5.1 5.1----29.59-- 39.0----
2024-04-14 11:00 amNNE 5.1 6.0----29.60+0.01 40.6 39.0 40.6---
2024-04-14 10:54 amNNE 5.1 6.0----29.60- 40.8 39.0 40.8---